Location: K�ln
(50.9455°N, 6.9544°E)
Time: 12:34:43
(UTC+02:00)

ISS - Pass Details

Date: 04 January 2018
Orbit: 402 x 408 km, 51.6° (Epoch: 20 July)

Event Time Altitude Azimuth Distance (km) Brightness Sun altitude
Exits shadow 05:29:30 21° 85° (E) 1,008 -1.1 -28.0°
Drops below altitude 10° 05:30:46 10° 79° (E) 1,501 0.0 -27.8°
Sets 05:32:53 0° 75° (ENE) 2,371 1.2 -27.4°
